TimeEST,TemperatureF,Dew PointF,Humidity,Sea Level PressureIn,VisibilityMPH,Wind Direction,Wind SpeedMPH,Gust SpeedMPH,PrecipitationIn,Events,Conditions,WindDirDegrees,DateUTC
12:15 AM,43.9,32.5,64,29.53,10.0,WNW,10.4,24.2,N/A,,Overcast,290,2012-12-21 05:15:00
12:35 AM,43.2,32.0,65,29.54,10.0,West,9.2,18.4,N/A,,Overcast,280,2012-12-21 05:35:00
12:55 AM,42.8,29.7,60,29.55,10.0,West,11.5,23.0,N/A,,Overcast,280,2012-12-21 05:55:00
1:15 AM,42.4,28.6,58,29.55,10.0,West,11.5,24.2,N/A,,Overcast,270,2012-12-21 06:15:00
1:35 AM,42.1,28.6,59,29.55,10.0,West,13.8,20.7,N/A,,Overcast,280,2012-12-21 06:35:00
1:55 AM,41.4,28.4,60,29.55,10.0,West,8.1,-,N/A,,Mostly Cloudy,280,2012-12-21 06:55:00
2:15 AM,40.6,28.4,62,29.55,10.0,West,10.4,17.3,N/A,,Scattered Clouds,270,2012-12-21 07:15:00
2:35 AM,41.0,28.0,60,29.56,10.0,West,12.7,23.0,N/A,,Mostly Cloudy,260,2012-12-21 07:35:00
2:55 AM,40.6,28.4,62,29.57,10.0,West,11.5,16.1,N/A,,Overcast,280,2012-12-21 07:55:00
3:15 AM,40.1,27.9,62,29.57,10.0,West,9.2,17.3,N/A,,Overcast,270,2012-12-21 08:15:00
3:35 AM,39.4,27.9,63,29.57,10.0,West,12.7,19.6,N/A,,Overcast,280,2012-12-21 08:35:00
3:55 AM,39.0,28.0,65,29.57,10.0,West,8.1,17.3,N/A,,Overcast,280,2012-12-21 08:55:00
4:15 AM,38.7,28.4,67,29.56,10.0,West,5.8,-,N/A,,Overcast,270,2012-12-21 09:15:00
4:35 AM,38.8,28.2,66,29.56,10.0,West,4.6,-,N/A,,Overcast,260,2012-12-21 09:35:00
4:55 AM,38.8,27.9,65,29.56,10.0,West,3.5,-,N/A,,Overcast,260,2012-12-21 09:55:00
5:15 AM,38.8,28.6,67,29.56,10.0,West,5.8,-,N/A,,Overcast,260,2012-12-21 10:15:00
5:35 AM,38.8,28.6,67,29.55,10.0,West,11.5,17.3,N/A,,Overcast,260,2012-12-21 10:35:00
5:55 AM,39.2,27.3,62,29.55,10.0,West,10.4,18.4,N/A,,Overcast,270,2012-12-21 10:55:00
6:15 AM,38.8,26.4,61,29.55,10.0,West,8.1,-,N/A,,Overcast,260,2012-12-21 11:15:00
6:35 AM,39.4,25.7,58,29.55,10.0,West,17.3,28.8,N/A,,Overcast,260,2012-12-21 11:35:00
6:55 AM,39.4,25.2,57,29.56,10.0,West,11.5,18.4,N/A,,Overcast,270,2012-12-21 11:55:00
7:15 AM,38.8,25.0,58,29.57,10.0,West,10.4,16.1,N/A,,Overcast,280,2012-12-21 12:15:00
7:35 AM,38.5,24.6,58,29.58,10.0,WNW,6.9,18.4,N/A,,Overcast,290,2012-12-21 12:35:00
7:55 AM,38.3,25.3,60,29.58,10.0,West,10.4,-,N/A,,Overcast,260,2012-12-21 12:55:00
8:15 AM,37.8,25.7,62,29.59,10.0,West,13.8,21.9,N/A,,Overcast,260,2012-12-21 13:15:00
8:35 AM,37.6,24.8,60,29.59,10.0,West,13.8,23.0,N/A,,Overcast,260,2012-12-21 13:35:00
8:55 AM,37.6,24.1,58,29.60,10.0,West,9.2,23.0,N/A,,Overcast,260,2012-12-21 13:55:00
9:15 AM,37.4,23.4,57,29.61,10.0,West,16.1,25.3,N/A,,Overcast,260,2012-12-21 14:15:00
9:35 AM,37.8,22.5,54,29.62,10.0,West,13.8,24.2,N/A,,Overcast,260,2012-12-21 14:35:00
9:55 AM,37.9,22.8,55,29.63,10.0,West,10.4,21.9,N/A,,Overcast,260,2012-12-21 14:55:00
10:15 AM,38.3,22.3,53,29.63,10.0,West,17.3,28.8,N/A,,Overcast,260,2012-12-21 15:15:00
10:35 AM,38.3,22.6,53,29.64,10.0,West,11.5,21.9,N/A,,Overcast,270,2012-12-21 15:35:00
10:55 AM,38.8,22.5,52,29.64,10.0,WSW,15.0,20.7,N/A,,Overcast,250,2012-12-21 15:55:00
11:15 AM,38.3,22.5,53,29.64,10.0,West,11.5,24.2,N/A,,Overcast,260,2012-12-21 16:15:00
11:35 AM,39.4,22.3,50,29.64,10.0,West,16.1,23.0,N/A,,Overcast,260,2012-12-21 16:35:00
11:55 AM,39.7,21.6,48,29.64,10.0,West,15.0,25.3,N/A,,Mostly Cloudy,270,2012-12-21 16:55:00
12:15 PM,40.1,21.4,47,29.64,10.0,West,15.0,21.9,N/A,,Mostly Cloudy,260,2012-12-21 17:15:00
12:35 PM,39.2,21.0,48,29.64,10.0,West,11.5,26.5,N/A,,Overcast,280,2012-12-21 17:35:00
12:55 PM,39.4,20.3,46,29.64,10.0,West,8.1,21.9,N/A,,Overcast,280,2012-12-21 17:55:00
1:15 PM,39.4,20.1,46,29.65,10.0,West,16.1,24.2,N/A,,Mostly Cloudy,280,2012-12-21 18:15:00
1:35 PM,39.4,21.6,49,29.65,10.0,West,13.8,24.2,N/A,,Mostly Cloudy,260,2012-12-21 18:35:00
1:55 PM,39.4,21.7,49,29.65,10.0,WSW,11.5,21.9,N/A,,Overcast,250,2012-12-21 18:55:00
2:15 PM,38.8,21.6,50,29.66,10.0,West,17.3,31.1,N/A,,Overcast,280,2012-12-21 19:15:00
2:35 PM,38.7,21.6,50,29.66,10.0,West,11.5,23.0,N/A,,Overcast,280,2012-12-21 19:35:00
2:55 PM,38.3,21.7,51,29.66,10.0,West,12.7,20.7,N/A,,Mostly Cloudy,280,2012-12-21 19:55:00
3:15 PM,37.8,21.7,53,29.68,10.0,West,12.7,27.6,N/A,,Overcast,270,2012-12-21 20:15:00
3:35 PM,37.2,21.9,54,29.68,10.0,West,13.8,23.0,N/A,,Overcast,270,2012-12-21 20:35:00
3:55 PM,36.9,21.4,54,29.69,10.0,West,11.5,23.0,N/A,,Overcast,270,2012-12-21 20:55:00
4:15 PM,36.9,22.1,55,29.70,10.0,West,12.7,20.7,N/A,,Overcast,280,2012-12-21 21:15:00
4:35 PM,35.8,22.1,58,29.71,10.0,West,13.8,26.5,N/A,,Overcast,270,2012-12-21 21:35:00
4:55 PM,35.1,22.8,61,29.71,10.0,West,13.8,21.9,N/A,,Overcast,260,2012-12-21 21:55:00
5:15 PM,35.6,22.6,59,29.72,10.0,West,15.0,23.0,N/A,,Overcast,260,2012-12-21 22:15:00
5:35 PM,35.6,22.6,59,29.73,10.0,West,13.8,19.6,N/A,,Overcast,260,2012-12-21 22:35:00
5:55 PM,34.7,23.9,65,29.74,10.0,West,16.1,24.2,N/A,,Overcast,260,2012-12-21 22:55:00
6:15 PM,34.7,24.4,66,29.75,10.0,West,13.8,19.6,N/A,,Overcast,260,2012-12-21 23:15:00
6:35 PM,34.7,24.4,66,29.75,10.0,West,6.9,26.5,N/A,,Overcast,270,2012-12-21 23:35:00
6:55 PM,35.1,23.5,63,29.76,10.0,West,9.2,-,N/A,,Overcast,270,2012-12-21 23:55:00
7:15 PM,35.6,21.2,56,29.76,10.0,West,12.7,20.7,N/A,,Overcast,280,2012-12-22 00:15:00
7:35 PM,35.8,20.3,53,29.77,10.0,West,9.2,21.9,N/A,,Overcast,280,2012-12-22 00:35:00
7:55 PM,35.8,20.1,53,29.77,10.0,West,15.0,25.3,N/A,,Overcast,280,2012-12-22 00:55:00
8:15 PM,35.8,20.1,53,29.78,10.0,WNW,9.2,24.2,N/A,,Overcast,290,2012-12-22 01:15:00
8:35 PM,35.6,20.3,54,29.78,10.0,WNW,8.1,24.2,N/A,,Overcast,290,2012-12-22 01:35:00
8:55 PM,35.6,20.3,54,29.78,10.0,WNW,12.7,23.0,N/A,,Overcast,290,2012-12-22 01:55:00
9:15 PM,35.6,20.3,54,29.79,10.0,WNW,18.4,26.5,N/A,,Overcast,300,2012-12-22 02:15:00
9:35 PM,35.4,20.1,54,29.79,10.0,WNW,9.2,21.9,N/A,,Overcast,290,2012-12-22 02:35:00
9:55 PM,35.1,19.9,54,29.80,10.0,WNW,10.4,19.6,N/A,,Overcast,290,2012-12-22 02:55:00
10:15 PM,35.1,19.8,54,29.81,10.0,WNW,16.1,27.6,N/A,,Overcast,300,2012-12-22 03:15:00
10:35 PM,35.2,19.8,53,29.81,10.0,WNW,15.0,27.6,N/A,,Overcast,290,2012-12-22 03:35:00
10:55 PM,35.6,19.9,53,29.81,10.0,WNW,16.1,24.2,N/A,,Overcast,300,2012-12-22 03:55:00
11:15 PM,35.6,19.9,53,29.81,10.0,NW,15.0,21.9,N/A,,Overcast,310,2012-12-22 04:15:00
11:35 PM,35.6,20.1,53,29.82,10.0,WNW,16.1,25.3,N/A,,Overcast,300,2012-12-22 04:35:00
11:55 PM,35.6,19.9,53,29.82,10.0,West,16.1,29.9,N/A,,Overcast,280,2012-12-22 04:55:00